Date String (YYYY-MM-DD hh:mm:ss) UTC,Instrument flags,absolute air pressure of the measurement (hPa),sample flow rate (lpm),inlet stack bypass flow (lpm),air temperature of the measurement (°C),ambient temperature measured by the external sensor (°C),aerosol sample conditioner tube jacket temperature (°C),OPC LED temperature (°C),internal box temperature (°C),relative humidity of the measurement (%),span deviation,mass concentration of particles derived from Lorenz-Mie calculation of OPC scattering (μg/m³),mass concentration of particles derived from Lorenz-Mie calculation of OPC scattering (μg/m³),mass concentration of particles derived from Lorenz-Mie calculation of OPC scattering (μg/m³)
DateTimeUTC,F1_M11,P_M11,Q1_M11,Q2_M11,T1_M11,T2_M11,T3_M11,T4_M11,T5_M11,U1_M11,ZSPAN_M11,X0_M11,X2_M11,X1_M11
2024-01-27 11:00:00,SystemResetWarning,0835.6,4.99,000.00,019.6,018.8,000.0,028.0,020.9,11.8,0000.0,0003.62,0001.85,0001.78
2024-01-27 11:01:00,SystemResetWarning,0835.6,5.00,000.00,019.6,018.9,000.0,028.0,020.9,11.8,0000.0,0003.60,0001.84,0001.78
2024-01-27 11:02:00,SystemResetWarning,0835.6,5.00,000.00,019.6,018.9,000.0,028.0,021.0,11.7,0000.0,0003.60,0001.83,0001.77
2024-01-27 11:03:00,SystemResetWarning,0835.6,5.00,000.00,019.6,018.9,000.0,028.0,020.9,11.7,0000.0,0002.83,0001.82,0001.76
2024-01-27 11:04:00,SystemResetWarning,0835.6,5.00,000.00,019.6,018.9,000.0,028.0,020.9,11.7,0000.0,0001.94,0001.79,0001.74
2024-01-27 11:05:00,SystemResetWarning,0835.6,5.01,000.00,019.6,018.9,000.0,027.9,020.9,11.7,0000.0,0001.95,0001.79,0001.73
2024-01-27 11:06:00,SystemResetWarning,0835.6,5.01,000.00,019.6,018.9,000.0,027.9,020.9,11.7,0000.0,0001.89,0001.79,0001.73
2024-01-27 11:07:00,SystemResetWarning,0835.6,5.01,000.00,019.6,018.9,000.0,027.9,020.9,11.7,0000.0,0001.85,0001.78,0001.73
2024-01-27 11:08:00,SystemResetWarning,0835.6,5.00,000.00,019.6,018.9,000.0,027.9,020.9,11.7,0000.0,0001.83,0001.78,0001.73
2024-01-27 11:09:00,SystemResetWarning,0835.6,5.00,000.00,019.6,018.9,000.0,027.9,020.9,11.7,0000.0,0001.82,0001.77,0001.72
2024-01-27 11:10:00,SystemResetWarning,0835.5,5.00,000.00,019.6,018.9,000.0,027.9,020.9,11.7,0000.0,0001.77,0001.74,0001.70
2024-01-27 11:11:00,SystemResetWarning,0835.6,5.00,000.00,019.6,018.9,000.0,027.9,020.9,11.7,0000.0,0001.77,0001.73,0001.69
2024-01-27 11:12:00,SystemResetWarning,0835.5,5.00,000.00,019.6,018.9,000.0,027.9,021.0,11.6,0000.0,0001.76,0001.72,0001.68
2024-01-27 11:13:00,SystemResetWarning,0835.6,5.00,000.00,019.6,018.9,000.0,027.9,021.0,11.6,0000.0,0001.76,0001.71,0001.67
2024-01-27 11:14:00,SystemResetWarning,0835.5,5.00,000.00,019.6,018.9,000.0,027.9,021.0,11.7,0000.0,0001.74,0001.69,0001.65
2024-01-27 11:15:00,SystemResetWarning,0835.5,5.00,000.00,019.6,018.9,000.0,027.9,020.9,11.7,0000.0,0001.74,0001.69,0001.65
2024-01-27 11:16:00,SystemResetWarning,0835.7,5.00,000.00,019.6,018.9,000.0,027.9,021.0,11.5,0000.0,0001.73,0001.68,0001.65
2024-01-27 11:17:00,SystemResetWarning,0835.7,5.00,000.00,019.6,018.9,000.0,027.9,021.0,11.4,0000.0,0001.67,0001.67,0001.65
2024-01-27 11:18:00,SystemResetWarning,0835.6,5.00,000.00,019.6,018.9,000.0,027.9,020.9,11.4,0000.0,0001.81,0001.68,0001.66
2024-01-27 11:19:00,SystemResetWarning,0835.6,5.01,000.00,019.6,018.9,000.0,027.9,021.0,11.4,0000.0,0001.87,0001.71,0001.67
2024-01-27 11:20:00,SystemResetWarning,0835.6,5.00,000.00,019.6,018.9,000.0,027.9,021.0,11.4,0000.0,0001.88,0001.72,0001.68
2024-01-27 11:21:00,SystemResetWarning,0835.6,5.00,000.00,019.6,018.9,000.0,028.0,021.0,11.4,0000.0,0001.94,0001.75,0001.71
2024-01-27 11:22:00,SystemResetWarning,0835.6,5.00,000.00,019.6,018.9,000.0,028.0,021.0,11.4,0000.0,0002.00,0001.81,0001.75
2024-01-27 11:23:00,SystemResetWarning,0835.6,5.00,000.00,019.6,018.9,000.0,028.0,021.0,11.4,0000.0,0002.04,0001.85,0001.79
2024-01-27 11:24:00,SystemResetWarning,0835.6,5.00,000.00,019.6,018.9,000.0,028.0,021.0,11.4,0000.0,0002.07,0001.88,0001.82
2024-01-27 11:25:00,SystemResetWarning,0835.6,5.00,000.00,019.6,018.9,000.0,028.0,021.0,11.5,0000.0,0002.14,0001.93,0001.86
2024-01-27 11:26:00,SystemResetWarning,0835.6,5.00,000.00,019.6,018.9,000.0,028.0,021.0,11.5,0000.0,0002.15,0001.95,0001.87
2024-01-27 11:27:00,SystemResetWarning,0835.8,5.00,000.00,019.6,018.9,000.0,028.0,021.0,11.5,0000.0,0002.16,0001.96,0001.89
2024-01-27 11:28:00,SystemResetWarning,0835.6,5.00,000.00,019.6,018.9,000.0,028.0,020.9,11.6,0000.0,0002.16,0001.97,0001.90
2024-01-27 11:29:00,SystemResetWarning,0835.5,5.00,000.00,019.6,018.9,000.0,028.0,020.9,11.5,0000.0,0002.05,0001.96,0001.89
2024-01-27 11:30:00,SystemResetWarning,0835.5,5.01,000.00,019.6,018.9,000.0,027.9,020.9,11.6,0000.0,0001.98,0001.94,0001.89
2024-01-27 11:31:00,SystemResetWarning,0835.5,5.01,000.00,019.6,018.9,000.0,027.9,020.9,11.6,0000.0,0001.98,0001.95,0001.89
2024-01-27 11:32:00,SystemResetWarning,0835.5,5.00,000.00,019.6,018.9,000.0,027.9,020.8,11.6,0000.0,0001.97,0001.94,0001.89
2024-01-27 11:33:00,SystemResetWarning,0835.5,5.00,000.00,019.6,018.9,000.0,027.9,020.9,11.6,0000.0,0001.92,0001.91,0001.87
2024-01-27 11:34:00,SystemResetWarning,0835.6,5.00,000.00,019.6,018.9,000.0,027.9,020.9,11.5,0000.0,0001.92,0001.91,0001.85
2024-01-27 11:35:00,SystemResetWarning,0835.6,5.00,000.00,019.6,018.9,000.0,027.9,020.9,11.5,0000.0,0001.93,0001.91,0001.84
2024-01-27 11:36:00,SystemResetWarning,0835.5,5.00,000.00,019.6,018.9,000.0,027.9,020.9,11.4,0000.0,0001.89,0001.89,0001.83
2024-01-27 11:37:00,SystemResetWarning,0835.5,5.00,000.00,019.6,018.9,000.0,027.9,020.8,11.3,0000.0,0001.95,0001.89,0001.82
2024-01-27 11:38:00,SystemResetWarning,0835.6,5.00,000.00,019.5,018.8,000.0,027.9,020.8,11.3,0000.0,0001.99,0001.88,0001.81
2024-01-27 11:39:00,SystemResetWarning,0835.5,5.00,000.00,019.5,018.8,000.0,027.9,020.8,11.2,0000.0,0002.02,0001.90,0001.83
2024-01-27 11:40:00,SystemResetWarning,0835.5,5.00,000.00,019.5,018.8,000.0,027.9,020.8,11.2,0000.0,0002.07,0001.93,0001.84
2024-01-27 11:41:00,SystemResetWarning,0835.5,5.00,000.00,019.5,018.8,000.0,027.9,020.8,11.2,0000.0,0002.05,0001.91,0001.83
2024-01-27 11:42:00,SystemResetWarning,0835.5,5.00,000.00,019.5,018.8,000.0,027.9,020.9,11.2,0000.0,0002.04,0001.90,0001.82
2024-01-27 11:43:00,SystemResetWarning,0835.6,5.00,000.00,019.5,018.8,000.0,027.9,020.9,11.2,0000.0,0002.02,0001.88,0001.80
2024-01-27 11:44:00,SystemResetWarning,0835.6,5.00,000.00,019.5,018.8,000.0,027.9,020.9,11.2,0000.0,0001.98,0001.85,0001.78
2024-01-27 11:45:00,SystemResetWarning,0835.6,5.00,000.00,019.5,018.8,000.0,027.9,020.9,11.1,0000.0,0001.94,0001.83,0001.77
2024-01-27 11:46:00,SystemResetWarning,0835.5,5.00,000.00,019.5,018.8,000.0,027.9,020.8,11.1,0000.0,0001.91,0001.80,0001.75
2024-01-27 11:47:00,SystemResetWarning,0835.5,5.00,000.00,019.5,018.8,000.0,027.9,020.8,11.1,0000.0,0001.89,0001.77,0001.73
2024-01-27 11:48:00,SystemResetWarning,0835.5,5.00,000.00,019.5,018.8,000.0,027.9,020.8,11.1,0000.0,0001.87,0001.76,0001.72
2024-01-27 11:49:00,SystemResetWarning,0835.6,5.00,000.00,019.5,018.9,000.0,027.9,020.9,11.1,0000.0,0001.80,0001.75,0001.71
2024-01-27 11:50:00,SystemResetWarning,0835.5,5.00,000.00,019.5,018.9,000.0,027.9,020.9,11.1,0000.0,0001.83,0001.75,0001.69
2024-01-27 11:51:00,SystemResetWarning,0835.5,5.00,000.00,019.5,018.9,000.0,027.9,020.9,11.3,0000.0,0001.80,0001.73,0001.67
2024-01-27 11:52:00,SystemResetWarning,0835.5,5.00,000.00,019.6,018.9,000.0,027.9,020.9,11.3,0000.0,0001.80,0001.73,0001.67
2024-01-27 11:53:00,SystemResetWarning,0835.4,5.00,000.00,019.6,018.8,000.0,027.9,020.9,11.0,0000.0,0001.79,0001.73,0001.67
2024-01-27 11:54:00,SystemResetWarning,0835.4,5.01,000.00,019.6,018.8,000.0,027.9,020.9,10.9,0000.0,0001.79,0001.72,0001.66
2024-01-27 11:55:00,SystemResetWarning,0835.3,5.01,000.00,019.5,018.8,000.0,027.9,020.9,10.9,0000.0,0001.79,0001.73,0001.68
2024-01-27 11:56:00,SystemResetWarning,0835.3,5.00,000.00,019.5,018.8,000.0,027.9,020.9,10.8,0000.0,0001.81,0001.74,0001.69
2024-01-27 11:57:00,SystemResetWarning,0835.4,5.00,000.00,019.6,018.8,000.0,027.9,020.9,10.8,0000.0,0001.85,0001.76,0001.69
2024-01-27 11:58:00,SystemResetWarning,0835.3,5.00,000.00,019.6,018.8,000.0,027.9,020.9,10.9,0000.0,0001.89,0001.77,0001.69
2024-01-27 11:59:00,SystemResetWarning,0835.3,5.00,000.00,019.6,018.8,000.0,027.9,020.9,11.1,0000.0,0001.88,0001.77,0001.69
